TimeEDT,TemperatureF,Dew PointF,Humidity,Sea Level PressureIn,VisibilityMPH,Wind Direction,Wind SpeedMPH,Gust SpeedMPH,PrecipitationIn,Events,Conditions,WindDirDegrees,DateUTC
12:53 AM,50.0,45.0,83,30.09,10.0,SSE,3.5,-,N/A,,Clear,150,2013-09-15 04:53:00
1:53 AM,48.0,44.1,86,30.09,10.0,South,3.5,-,N/A,,Clear,170,2013-09-15 05:53:00
2:53 AM,50.0,44.1,80,30.09,10.0,SSE,5.8,-,N/A,,Clear,150,2013-09-15 06:53:00
3:53 AM,48.0,43.0,83,30.09,10.0,SSE,8.1,-,N/A,,Clear,160,2013-09-15 07:53:00
4:53 AM,46.9,42.1,83,30.10,10.0,South,4.6,-,N/A,,Clear,170,2013-09-15 08:53:00
5:53 AM,44.1,41.0,89,30.11,10.0,South,5.8,-,N/A,,Clear,170,2013-09-15 09:53:00
6:53 AM,46.9,43.0,86,30.12,10.0,South,6.9,-,N/A,,Clear,170,2013-09-15 10:53:00
7:53 AM,48.9,44.1,83,30.13,10.0,South,3.5,-,N/A,,Clear,170,2013-09-15 11:53:00
8:53 AM,52.0,46.9,83,30.13,10.0,Calm,Calm,-,N/A,,Clear,0,2013-09-15 12:53:00
9:53 AM,59.0,51.1,75,30.14,10.0,SSW,4.6,-,N/A,,Clear,210,2013-09-15 13:53:00
10:53 AM,64.0,50.0,60,30.12,10.0,SSW,5.8,-,N/A,,Clear,210,2013-09-15 14:53:00
11:53 AM,66.9,48.9,52,30.11,10.0,WSW,9.2,-,N/A,,Clear,250,2013-09-15 15:53:00
12:53 PM,68.0,46.0,45,30.08,10.0,South,8.1,-,N/A,,Clear,190,2013-09-15 16:53:00
1:53 PM,71.1,45.0,39,30.06,10.0,SSW,8.1,-,N/A,,Clear,200,2013-09-15 17:53:00
2:53 PM,71.1,46.0,41,30.05,10.0,SSW,6.9,-,N/A,,Clear,210,2013-09-15 18:53:00
3:53 PM,71.1,45.0,39,30.03,10.0,WSW,6.9,-,N/A,,Scattered Clouds,250,2013-09-15 19:53:00
4:53 PM,71.1,46.9,42,30.02,10.0,South,6.9,-,N/A,,Mostly Cloudy,170,2013-09-15 20:53:00
5:53 PM,70.0,46.9,44,30.01,10.0,South,6.9,-,N/A,,Mostly Cloudy,180,2013-09-15 21:53:00
6:53 PM,68.0,50.0,52,30.05,10.0,West,4.6,-,N/A,,Overcast,270,2013-09-15 22:53:00
7:53 PM,60.1,53.1,78,30.07,10.0,North,11.5,23.0,0.01,Rain,Light Rain,360,2013-09-15 23:53:00
8:53 PM,57.9,54.0,87,30.09,5.0,NNE,17.3,-,0.03,Rain,Heavy Rain,20,2013-09-16 00:53:00
9:53 PM,57.9,55.9,93,30.10,7.0,NNE,9.2,-,0.05,Rain,Light Rain,20,2013-09-16 01:53:00
10:53 PM,57.0,55.0,93,30.12,5.0,NNE,8.1,-,0.10,Rain,Light Rain,20,2013-09-16 02:53:00
11:53 PM,57.0,55.0,93,30.12,6.0,ENE,3.5,-,0.04,Rain,Light Rain,60,2013-09-16 03:53:00